Time,TemperatureF,DewpointF,PressureIn,WindDirection,WindDirectionDegrees,WindSpeedMPH,WindSpeedGustMPH,Humidity,HourlyPrecipIn,Conditions,Clouds,dailyrainin,SoftwareType,DateUTC
2013-02-21 00:03:00,21.0,15.0,30.28,WNW,298,4.0,6.0,77,0.00,,,0.00,,2013-02-21 05:03:00,
2013-02-21 00:12:00,21.0,15.0,30.28,WNW,298,4.0,6.0,77,0.00,,,0.00,,2013-02-21 05:12:00,
2013-02-21 00:22:00,21.0,15.0,30.28,NW,307,5.0,7.0,78,0.00,,,0.00,,2013-02-21 05:22:00,
2013-02-21 00:36:00,21.0,15.0,30.28,NW,309,4.0,7.0,77,0.00,,,0.00,,2013-02-21 05:36:00,
2013-02-21 00:46:00,21.0,15.0,30.28,NW,309,4.0,7.0,77,0.00,,,0.00,,2013-02-21 05:46:00,
2013-02-21 00:54:00,21.0,15.0,30.27,WNW,293,4.0,7.0,78,0.00,,,0.00,,2013-02-21 05:54:00,
2013-02-21 01:01:00,21.0,15.0,30.28,NW,306,4.0,8.0,78,0.00,,,0.00,,2013-02-21 06:01:00,
2013-02-21 01:11:00,21.0,15.0,30.28,NW,306,4.0,8.0,78,0.00,,,0.00,,2013-02-21 06:11:00,
2013-02-21 01:21:00,21.0,15.0,30.28,NW,316,5.0,8.0,76,0.00,,,0.00,,2013-02-21 06:21:00,
2013-02-21 01:31:00,21.0,15.0,30.28,NW,305,5.0,10.0,76,0.00,,,0.00,,2013-02-21 06:31:00,
2013-02-21 01:41:00,21.0,15.0,30.28,NW,305,5.0,10.0,76,0.00,,,0.00,,2013-02-21 06:41:00,
2013-02-21 01:51:00,21.0,14.0,30.29,WNW,302,6.0,9.0,75,0.00,,,0.00,,2013-02-21 06:51:00,
2013-02-21 02:01:00,21.0,15.0,30.29,NW,323,5.0,9.0,77,0.00,,,0.00,,2013-02-21 07:01:00,
2013-02-21 02:11:00,21.0,15.0,30.29,NW,324,4.0,9.0,76,0.00,,,0.00,,2013-02-21 07:11:00,
2013-02-21 02:21:00,21.0,15.0,30.29,NW,324,4.0,9.0,76,0.00,,,0.00,,2013-02-21 07:21:00,
2013-02-21 02:32:00,21.0,15.0,30.30,NW,307,3.0,7.0,78,0.00,,,0.00,,2013-02-21 07:32:00,
2013-02-21 02:42:00,21.0,15.0,30.31,NW,306,5.0,8.0,78,0.00,,,0.00,,2013-02-21 07:42:00,
2013-02-21 02:52:00,21.0,15.0,30.31,NW,306,5.0,8.0,78,0.00,,,0.00,,2013-02-21 07:52:00,
2013-02-21 03:02:00,21.0,14.0,30.30,NW,323,7.0,12.0,73,0.00,,,0.00,,2013-02-21 08:02:00,
2013-02-21 03:11:00,21.0,14.0,30.30,NW,323,7.0,12.0,73,0.00,,,0.00,,2013-02-21 08:11:00,
2013-02-21 03:21:00,21.0,14.0,30.31,WNW,298,5.0,10.0,74,0.00,,,0.00,,2013-02-21 08:21:00,
2013-02-21 03:32:00,21.0,14.0,30.30,NW,307,5.0,9.0,74,0.00,,,0.00,,2013-02-21 08:32:00,
2013-02-21 03:42:00,21.0,14.0,30.30,NW,307,5.0,9.0,74,0.00,,,0.00,,2013-02-21 08:42:00,
2013-02-21 03:52:00,21.0,15.0,30.30,NNW,328,4.0,7.0,76,0.00,,,0.00,,2013-02-21 08:52:00,
2013-02-21 04:02:00,21.0,15.0,30.30,NW,320,5.0,9.0,76,0.00,,,0.00,,2013-02-21 09:02:00,
2013-02-21 04:11:00,21.0,15.0,30.30,NW,320,5.0,9.0,76,0.00,,,0.00,,2013-02-21 09:11:00,
2013-02-21 04:22:00,21.0,15.0,30.30,NW,305,4.0,8.0,76,0.00,,,0.00,,2013-02-21 09:22:00,
2013-02-21 04:32:00,21.0,15.0,30.31,NW,306,4.0,8.0,76,0.00,,,0.00,,2013-02-21 09:32:00,
2013-02-21 04:42:00,21.0,15.0,30.31,NW,306,4.0,8.0,76,0.00,,,0.00,,2013-02-21 09:42:00,
2013-02-21 04:51:00,21.0,15.0,30.30,NW,306,4.0,7.0,77,0.00,,,0.00,,2013-02-21 09:51:00,
2013-02-21 05:01:00,21.0,14.0,30.30,NW,318,4.0,8.0,75,0.00,,,0.00,,2013-02-21 10:01:00,
2013-02-21 05:11:00,21.0,14.0,30.30,NW,318,4.0,8.0,75,0.00,,,0.00,,2013-02-21 10:11:00,
2013-02-21 05:21:00,21.0,14.0,30.31,WNW,298,4.0,8.0,74,0.00,,,0.00,,2013-02-21 10:21:00,
2013-02-21 05:31:00,21.0,14.0,30.32,NW,321,3.0,7.0,75,0.00,,,0.00,,2013-02-21 10:31:00,
2013-02-21 05:41:00,21.0,14.0,30.32,NW,321,3.0,7.0,75,0.00,,,0.00,,2013-02-21 10:41:00,
2013-02-21 05:51:00,21.0,14.0,30.32,NW,309,5.0,7.0,74,0.00,,,0.00,,2013-02-21 10:51:00,
2013-02-21 06:01:00,21.0,14.0,30.32,WNW,301,4.0,7.0,74,0.00,,,0.00,,2013-02-21 11:01:00,
2013-02-21 06:11:00,21.0,14.0,30.32,WNW,301,4.0,7.0,74,0.00,,,0.00,,2013-02-21 11:11:00,
2013-02-21 06:21:00,21.0,14.0,30.33,WNW,298,5.0,7.0,73,0.00,,,0.00,,2013-02-21 11:21:00,
2013-02-21 06:31:00,21.0,14.0,30.33,NNW,343,4.0,8.0,73,0.00,,,0.00,,2013-02-21 11:31:00,
2013-02-21 06:41:00,21.0,14.0,30.33,NNW,343,4.0,8.0,73,0.00,,,0.00,,2013-02-21 11:41:00,
2013-02-21 06:51:00,21.0,14.0,30.33,NW,316,6.0,9.0,73,0.00,,,0.00,,2013-02-21 11:51:00,
2013-02-21 07:01:00,21.0,14.0,30.34,NW,305,4.0,8.0,74,0.00,,,0.00,,2013-02-21 12:01:00,
2013-02-21 07:11:00,21.0,14.0,30.34,NW,305,4.0,8.0,74,0.00,,,0.00,,2013-02-21 12:11:00,
2013-02-21 07:22:00,21.0,14.0,30.34,NW,316,3.0,8.0,74,0.00,,,0.00,,2013-02-21 12:22:00,
2013-02-21 07:32:00,21.0,14.0,30.35,WNW,299,3.0,8.0,74,0.00,,,0.00,,2013-02-21 12:32:00,
2013-02-21 07:43:00,21.0,14.0,30.35,WNW,299,3.0,8.0,74,0.00,,,0.00,,2013-02-21 12:43:00,
2013-02-21 07:52:00,22.0,15.0,30.35,NW,305,3.0,7.0,74,0.00,,,0.00,,2013-02-21 12:52:00,
2013-02-21 08:02:00,22.0,15.0,30.37,NW,312,4.0,7.0,75,0.00,,,0.00,,2013-02-21 13:02:00,
2013-02-21 08:12:00,22.0,15.0,30.37,NW,312,4.0,7.0,75,0.00,,,0.00,,2013-02-21 13:12:00,
2013-02-21 08:22:00,22.0,15.0,30.37,WNW,290,4.0,9.0,74,0.00,,,0.00,,2013-02-21 13:22:00,
2013-02-21 08:32:00,22.0,15.0,30.36,NW,321,4.0,7.0,75,0.00,,,0.00,,2013-02-21 13:32:00,
2013-02-21 08:42:00,22.0,15.0,30.36,NW,321,4.0,7.0,75,0.00,,,0.00,,2013-02-21 13:42:00,
2013-02-21 08:51:00,22.0,15.0,30.37,North,356,3.0,8.0,75,0.00,,,0.00,,2013-02-21 13:51:00,
2013-02-21 09:02:00,22.0,16.0,30.38,North,355,2.0,6.0,76,0.00,,,0.00,,2013-02-21 14:02:00,
2013-02-21 09:11:00,22.0,16.0,30.38,North,355,2.0,6.0,76,0.00,,,0.00,,2013-02-21 14:11:00,
2013-02-21 09:22:00,22.0,16.0,30.37,NNW,328,4.0,9.0,76,0.00,,,0.00,,2013-02-21 14:22:00,
2013-02-21 09:32:00,22.0,16.0,30.37,NNW,346,4.0,8.0,76,0.00,,,0.00,,2013-02-21 14:32:00,
2013-02-21 09:42:00,22.0,16.0,30.37,NNW,346,4.0,8.0,76,0.00,,,0.00,,2013-02-21 14:42:00,
2013-02-21 09:52:00,22.0,15.0,30.36,East,94,3.0,9.0,75,0.00,,,0.00,,2013-02-21 14:52:00,
2013-02-21 10:02:00,22.0,15.0,30.37,NNE,20,5.0,8.0,75,0.00,,,0.00,,2013-02-21 15:02:00,
2013-02-21 10:12:00,22.0,15.0,30.37,NNE,20,5.0,8.0,75,0.00,,,0.00,,2013-02-21 15:12:00,
2013-02-21 10:22:00,22.0,15.0,30.37,NNE,20,5.0,10.0,74,0.00,,,0.00,,2013-02-21 15:22:00,
2013-02-21 10:32:00,22.0,15.0,30.37,NE,34,3.0,7.0,73,0.00,,,0.00,,2013-02-21 15:32:00,
2013-02-21 10:42:00,22.0,15.0,30.37,NE,34,3.0,7.0,73,0.00,,,0.00,,2013-02-21 15:42:00,
2013-02-21 10:52:00,22.0,15.0,30.39,North,9,4.0,9.0,73,0.00,,,0.00,,2013-02-21 15:52:00,
2013-02-21 11:02:00,23.0,15.0,30.39,NNW,343,4.0,6.0,72,0.00,,,0.00,,2013-02-21 16:02:00,
2013-02-21 11:12:00,23.0,15.0,30.39,NW,310,2.0,6.0,72,0.00,,,0.00,,2013-02-21 16:12:00,
2013-02-21 11:22:00,23.0,15.0,30.39,NW,310,2.0,6.0,72,0.00,,,0.00,,2013-02-21 16:22:00,
2013-02-21 11:32:00,23.0,15.0,30.40,NNW,345,2.0,4.0,71,0.00,,,0.00,,2013-02-21 16:32:00,
2013-02-21 11:42:00,23.0,15.0,30.39,NNW,327,1.0,3.0,72,0.00,,,0.00,,2013-02-21 16:42:00,
2013-02-21 11:52:00,23.0,15.0,30.39,NNW,327,1.0,3.0,72,0.00,,,0.00,,2013-02-21 16:52:00,
2013-02-21 12:02:00,23.0,15.0,30.39,ENE,63,2.0,6.0,72,0.00,,,0.00,,2013-02-21 17:02:00,
2013-02-21 12:11:00,23.0,15.0,30.39,ENE,63,2.0,6.0,72,0.00,,,0.00,,2013-02-21 17:11:00,
2013-02-21 12:21:00,23.0,15.0,30.39,NE,51,4.0,7.0,71,0.00,,,0.00,,2013-02-21 17:21:00,
2013-02-21 12:32:00,23.0,15.0,30.38,NE,38,4.0,7.0,71,0.00,,,0.00,,2013-02-21 17:32:00,
2013-02-21 12:42:00,23.0,15.0,30.38,NE,38,4.0,7.0,71,0.00,,,0.00,,2013-02-21 17:42:00,
2013-02-21 12:52:00,24.0,16.0,30.37,NNW,328,0.0,5.0,70,0.00,,,0.00,,2013-02-21 17:52:00,
2013-02-21 13:02:00,24.0,15.0,30.37,ESE,120,1.0,4.0,69,0.00,,,0.00,,2013-02-21 18:02:00,
2013-02-21 13:12:00,24.0,15.0,30.37,ESE,120,1.0,4.0,69,0.00,,,0.00,,2013-02-21 18:12:00,
2013-02-21 13:22:00,24.0,15.0,30.38,North,8,2.0,5.0,69,0.00,,,0.00,,2013-02-21 18:22:00,
2013-02-21 13:32:00,24.0,15.0,30.39,East,98,2.0,4.0,68,0.00,,,0.00,,2013-02-21 18:32:00,
2013-02-21 13:42:00,24.0,15.0,30.39,East,98,2.0,4.0,68,0.00,,,0.00,,2013-02-21 18:42:00,
2013-02-21 13:51:00,24.0,15.0,30.39,East,98,2.0,4.0,68,0.00,,,0.00,,2013-02-21 18:51:00,
2013-02-21 14:02:00,24.0,15.0,30.37,NNE,29,3.0,5.0,68,0.00,,,0.00,,2013-02-21 19:02:00,
2013-02-21 14:12:00,24.0,15.0,30.37,NNE,29,3.0,5.0,68,0.00,,,0.00,,2013-02-21 19:12:00,
2013-02-21 14:22:00,25.0,16.0,30.36,ESE,110,2.0,4.0,68,0.00,,,0.00,,2013-02-21 19:22:00,
2013-02-21 14:32:00,24.0,15.0,30.35,NNE,27,2.0,7.0,68,0.00,,,0.00,,2013-02-21 19:32:00,
2013-02-21 14:42:00,24.0,15.0,30.35,NNE,27,2.0,7.0,68,0.00,,,0.00,,2013-02-21 19:42:00,
2013-02-21 14:52:00,24.0,15.0,30.34,North,8,3.0,6.0,69,0.00,,,0.00,,2013-02-21 19:52:00,
2013-02-21 15:01:00,24.0,15.0,30.35,NNE,13,2.0,6.0,68,0.00,,,0.00,,2013-02-21 20:01:00,
2013-02-21 15:11:00,24.0,17.0,30.35,NE,42,3.0,9.0,73,0.00,,,0.00,,2013-02-21 20:11:00,
2013-02-21 15:21:00,24.0,17.0,30.35,NE,42,3.0,9.0,73,0.00,,,0.00,,2013-02-21 20:21:00,
2013-02-21 15:32:00,24.0,17.0,30.33,ENE,60,3.0,10.0,73,0.00,,,0.00,,2013-02-21 20:32:00,
2013-02-21 15:42:00,24.0,17.0,30.33,ENE,60,3.0,10.0,73,0.00,,,0.00,,2013-02-21 20:42:00,
2013-02-21 15:52:00,24.0,17.0,30.31,NE,40,2.0,6.0,73,0.00,,,0.00,,2013-02-21 20:52:00,
2013-02-21 16:02:00,24.0,16.0,30.32,East,81,3.0,6.0,72,0.00,,,0.00,,2013-02-21 21:02:00,
2013-02-21 16:12:00,24.0,16.0,30.32,East,81,3.0,6.0,72,0.00,,,0.00,,2013-02-21 21:12:00,
2013-02-21 16:22:00,24.0,16.0,30.32,East,81,3.0,6.0,72,0.00,,,0.00,,2013-02-21 21:22:00,
2013-02-21 16:32:00,23.0,16.0,30.33,SE,133,3.0,7.0,73,0.00,,,0.00,,2013-02-21 21:32:00,
2013-02-21 16:42:00,22.0,15.0,30.34,ESE,105,3.0,8.0,74,0.00,,,0.00,,2013-02-21 21:42:00,
2013-02-21 16:52:00,22.0,15.0,30.34,ESE,105,3.0,8.0,74,0.00,,,0.00,,2013-02-21 21:52:00,
2013-02-21 17:01:00,22.0,15.0,30.35,ENE,68,4.0,7.0,73,0.00,,,0.00,,2013-02-21 22:01:00,
2013-02-21 17:11:00,22.0,15.0,30.35,ENE,68,4.0,7.0,73,0.00,,,0.00,,2013-02-21 22:11:00,
2013-02-21 17:21:00,22.0,15.0,30.36,ESE,119,4.0,8.0,73,0.00,,,0.00,,2013-02-21 22:21:00,
2013-02-21 17:32:00,22.0,14.0,30.37,ENE,71,4.0,7.0,72,0.00,,,0.00,,2013-02-21 22:32:00,
2013-02-21 17:42:00,22.0,14.0,30.37,ENE,71,4.0,7.0,72,0.00,,,0.00,,2013-02-21 22:42:00,
2013-02-21 17:52:00,22.0,14.0,30.36,SSE,149,2.0,9.0,72,0.00,,,0.00,,2013-02-21 22:52:00,
2013-02-21 18:01:00,21.0,13.0,30.35,East,82,4.0,8.0,71,0.00,,,0.00,,2013-02-21 23:01:00,
2013-02-21 18:11:00,21.0,13.0,30.35,East,82,4.0,8.0,71,0.00,,,0.00,,2013-02-21 23:11:00,
2013-02-21 18:21:00,21.0,14.0,30.36,SE,130,3.0,10.0,73,0.00,,,0.00,,2013-02-21 23:21:00,
2013-02-21 18:32:00,21.0,14.0,30.36,SE,130,3.0,10.0,73,0.00,,,0.00,,2013-02-21 23:32:00,
2013-02-21 18:42:00,21.0,14.0,30.36,SE,130,3.0,10.0,73,0.00,,,0.00,,2013-02-21 23:42:00,
2013-02-21 18:52:00,20.0,13.0,30.37,ESE,122,3.0,8.0,74,0.00,,,0.00,,2013-02-21 23:52:00,
2013-02-21 19:02:00,20.0,13.0,30.37,East,91,4.0,8.0,73,0.00,,,0.00,,2013-02-22 00:02:00,
2013-02-21 19:11:00,20.0,13.0,30.37,East,91,4.0,8.0,73,0.00,,,0.00,,2013-02-22 00:11:00,
2013-02-21 19:22:00,20.0,13.0,30.36,East,84,4.0,8.0,74,0.00,,,0.00,,2013-02-22 00:22:00,
2013-02-21 19:32:00,20.0,13.0,30.34,ENE,68,5.0,9.0,74,0.00,,,0.00,,2013-02-22 00:32:00,
2013-02-21 19:42:00,20.0,13.0,30.34,ENE,68,5.0,9.0,74,0.00,,,0.00,,2013-02-22 00:42:00,
2013-02-21 19:52:00,20.0,13.0,30.35,East,86,5.0,10.0,75,0.00,,,0.00,,2013-02-22 00:52:00,
2013-02-21 20:01:00,20.0,13.0,30.35,ENE,63,5.0,8.0,75,0.00,,,0.00,,2013-02-22 01:01:00,
2013-02-21 20:11:00,20.0,13.0,30.35,ENE,63,5.0,8.0,75,0.00,,,0.00,,2013-02-22 01:11:00,
2013-02-21 20:22:00,20.0,14.0,30.33,NE,56,2.0,8.0,76,0.00,,,0.00,,2013-02-22 01:22:00,
2013-02-21 20:32:00,20.0,14.0,30.33,ENE,72,3.0,10.0,76,0.00,,,0.00,,2013-02-22 01:32:00,
2013-02-21 20:42:00,20.0,14.0,30.33,ENE,72,3.0,10.0,76,0.00,,,0.00,,2013-02-22 01:42:00,
2013-02-21 20:51:00,21.0,15.0,30.33,ESE,122,4.0,10.0,76,0.00,,,0.00,,2013-02-22 01:51:00,
2013-02-21 21:02:00,21.0,15.0,30.32,NNE,13,2.0,11.0,77,0.00,,,0.00,,2013-02-22 02:02:00,
2013-02-21 21:11:00,21.0,15.0,30.32,NNE,13,2.0,11.0,77,0.00,,,0.00,,2013-02-22 02:11:00,
2013-02-21 21:21:00,21.0,15.0,30.32,SE,138,4.0,11.0,77,0.00,,,0.00,,2013-02-22 02:21:00,
2013-02-21 21:32:00,21.0,15.0,30.31,ESE,109,4.0,9.0,77,0.00,,,0.00,,2013-02-22 02:32:00,
2013-02-21 21:42:00,21.0,15.0,30.31,ESE,109,4.0,9.0,77,0.00,,,0.00,,2013-02-22 02:42:00,
2013-02-21 21:52:00,21.0,15.0,30.31,ENE,71,2.0,6.0,78,0.00,,,0.00,,2013-02-22 02:52:00,
2013-02-21 22:02:00,21.0,15.0,30.32,ENE,63,4.0,9.0,78,0.00,,,0.00,,2013-02-22 03:02:00,
2013-02-21 22:11:00,21.0,15.0,30.32,ENE,63,4.0,9.0,78,0.00,,,0.00,,2013-02-22 03:11:00,
2013-02-21 22:21:00,21.0,15.0,30.30,ESE,114,1.0,9.0,78,0.00,,,0.00,,2013-02-22 03:21:00,
2013-02-21 22:32:00,22.0,16.0,30.30,ENE,72,3.0,9.0,78,0.00,,,0.00,,2013-02-22 03:32:00,
2013-02-21 22:42:00,22.0,16.0,30.30,ENE,72,3.0,9.0,78,0.00,,,0.00,,2013-02-22 03:42:00,
2013-02-21 22:52:00,22.0,16.0,30.31,ESE,119,4.0,10.0,78,0.00,,,0.00,,2013-02-22 03:52:00,
2013-02-21 23:02:00,22.0,16.0,30.30,East,99,3.0,10.0,78,0.00,,,0.00,,2013-02-22 04:02:00,
2013-02-21 23:11:00,22.0,16.0,30.30,East,99,3.0,10.0,78,0.00,,,0.00,,2013-02-22 04:11:00,
2013-02-21 23:21:00,22.0,16.0,30.29,SE,126,4.0,8.0,79,0.00,,,0.00,,2013-02-22 04:21:00,
2013-02-21 23:32:00,22.0,16.0,30.28,ESE,119,5.0,11.0,79,0.00,,,0.00,,2013-02-22 04:32:00,
2013-02-21 23:42:00,22.0,16.0,30.28,ESE,119,5.0,11.0,79,0.00,,,0.00,,2013-02-22 04:42:00,
2013-02-21 23:51:00,22.0,16.0,30.28,ESE,113,4.0,11.0,79,0.00,,,0.00,,2013-02-22 04:51:00,